Location: Newark
(52.1031°N, 9.3600°E)
Time: 16:20:32
(UTC+00:00)

Envisat - Pass Details

Date: 27 October 2019
Orbit: 764 x 766 km, 98.1° (Epoch: 12 November)

Event Time Altitude Azimuth Distance (km) Brightness Sun altitude
Rises 16:31:34 0° 144° (SE) 3,224 6.0 -4.9°
Reaches altitude 10° 16:33:56 10° 139° (SE) 2,302 5.2 -5.2°
Maximum altitude 16:38:46 46° 67° (ENE) 1,023 3.3 -5.9°
Drops below altitude 10° 16:43:37 10° 355° (N) 2,316 5.4 -6.7°
Sets 16:46:00 0° 350° (N) 3,246 6.2 -7.0°
